Location: Newark
(42.7133°N, 87.7910°W)
Time: 07:51:36
(UTC+00:00)

Vanguard 1 - Pass Details

Date: 26 September 2019
Orbit: 653 x 3830 km, 34.2° (Epoch: 20 October)

Event Time Altitude Azimuth Distance (km) Brightness Sun altitude
Rises 03:58:38 0° 199° (SSW) 6,531 - -42.3°
Reaches altitude 10° 04:03:25 10° 189° (S) 5,925 - -42.8°
Maximum altitude 04:19:21 31° 136° (SE) 5,231 - -44.4°
Exits shadow 04:32:58 17° 94° (E) 6,265 13.8 -45.6°
Drops below altitude 10° 04:37:27 10° 85° (E) 6,810 14.1 -45.9°
Sets 04:43:22 0° 77° (ENE) 7,618 14.5 -46.3°
